Find Starlink 31546

NORAD ID: 59470 Int'l Des: 2024-068 Owner: SPXS Country: US Constellation: starlink operational
LEOCIRCULAR

Current View

Loading 3D Globe...

About Starlink 31546

Starlink 31546 (NORAD 59470) is a starlink constellation satellite (v2 mini) launched Apr 10, 2024 by SPXS of US. It operates in LEO, CIRCULAR orbit with a mass of 730.00 kg.

About Starlink 31546

Description loading...

Upcoming Passes

Passes for default location (London). Set your location on the main map for personalized predictions.

Altitude History

Loading altitude history...

Two-Line Element Set

1 59470U 24068R 26169.11758581 .00004181 00000-0 16134-3 0 9997
2 59470 42.9942 183.7346 0001657 275.8261 84.2402 15.27588181123922
Epoch: Jun 18, 2026 • Age: 20 hours

Current Status

Altitude 487.1 km
Velocity 7.62 km/s
Sub-Earth Point -21.46°S, 99.25°W
Launch Date Apr 10, 2024
Age 2.1 years
Type internet

Technical Details

Classification Payload
Mass 730.00 kg
Dry Mass 700.00 kg
Total Mass 730.00 kg
Length 0.30 m
Diameter 4.10 m
Span 29.00 m
Shape Box + pan
Manufacturer SPXS
Bus Type Starlink V2M
Phase Status In Orbit
Owner/State SPXS/US

Most Searched